Change the Weather History Date:

Wednesday, January 23, 2013

  Actual Average (KEGV) Record (KEGV)
Temperature  
Mean Temperature -6 °F -  
Max Temperature 8 °F 22 °F 35 °F (1992)
Min Temperature -20 °F 7 °F -22 °F (2011)
Degree Days  
Heating Degree Days 71    
Moisture  
Dew Point -9 °F    
Average Humidity 75    
Maximum Humidity 85    
Minimum Humidity 62    
Precipitation  
Precipitation 0.00 in - - ()
Sea Level Pressure  
Sea Level Pressure 30.08 in    
Wind  
Wind Speed 4 mph (NW)    
Max Wind Speed 16 mph    
Max Gust Speed 25 mph    
Visibility 7 miles    
Events Snow    
Averages and records for this station are not official NWS values.
T = Trace of Precipitation, MM = Missing Value Source: NWS Daily Summary

Daily Weather History Graph

Daily Weather History Graph

Search for Another Location

Airport or City:

Trip Planner

Search our weather history database for the weather conditions in past years. The results will help you decide how hot, cold, wet, or windy it might be!

Date:

Astronomy

Jan. 23, 2013 Rise Set
Actual Time 7:28 AM CST 4:49 PM CST
Civil Twilight 6:56 AM CST 5:21 PM CST
Nautical Twilight 6:19 AM CST 5:58 PM CST
Astronomical Twilight 5:44 AM CST 6:34 PM CST
Moon 1:56 PM CST (1/23) 4:43 AM CST (1/23)
Length of Visible Light 10h 25m
Length of Day
9h 20m
Waxing Gibbous, 89% of the Moon is Illuminated
Jan 23
Waxing Gibbous
Jan 26
Full
Feb 3
Last Quarter
Feb 10
New
Feb 17
First Quarter

Hourly Weather History & Observations

Time (CST) Temp. Windchill Dew Point Humidity Pressure Visibility Wind Dir Wind Speed Gust Speed Precip Events Conditions
12:15 AM -7.6 °F -18.8 °F -14.8 °F 71% 30.10 in 10.0 mi WSW 4.6 mph - N/A   Scattered Clouds
12:35 AM -7.6 °F -16.5 °F -14.8 °F 71% 30.09 in 10.0 mi WSW 3.5 mph - N/A   Scattered Clouds
12:55 AM -7.6 °F - -14.8 °F 71% 30.09 in 10.0 mi Calm Calm - N/A   Mostly Cloudy
1:15 AM -9.4 °F - -14.8 °F 77% 30.08 in 10.0 mi Calm Calm - N/A   Scattered Clouds
1:35 AM -9.4 °F - -14.8 °F 77% 30.08 in 10.0 mi Calm Calm - N/A   Clear
1:55 AM -11.2 °F - -16.6 °F 77% 30.08 in 10.0 mi Calm Calm - N/A   Clear
2:15 AM -14.8 °F -24.8 °F -20.2 °F 77% 30.08 in 10.0 mi SW 3.5 mph - N/A   Clear
2:35 AM -14.8 °F - -20.2 °F 77% 30.08 in 10.0 mi Calm Calm - N/A   Clear
3:15 AM -18.4 °F -28.9 °F -23.8 °F 76% 30.07 in 10.0 mi SSW 3.5 mph - N/A   Clear
3:35 AM -18.4 °F - -23.8 °F 76% 30.07 in 10.0 mi Calm Calm - N/A   Clear
3:55 AM -16.6 °F - -22.0 °F 76% 30.06 in 10.0 mi Calm Calm - N/A   Clear
4:15 AM -20.2 °F - -25.6 °F 76% 30.06 in 10.0 mi Calm Calm - N/A   Scattered Clouds
4:35 AM -18.4 °F - -23.8 °F 76% 30.05 in 10.0 mi Calm Calm - N/A   Mostly Cloudy
5:15 AM -20.2 °F - -25.6 °F 76% 30.03 in 10.0 mi Calm Calm - N/A Snow Light Snow
5:35 AM -18.4 °F - -25.6 °F 70% 30.02 in 10.0 mi Calm Calm - N/A   Overcast
5:55 AM -16.6 °F - -22.0 °F 76% 30.02 in 10.0 mi Calm Calm - N/A Snow Light Snow
6:15 AM -14.8 °F - -20.2 °F 77% 30.02 in 10.0 mi Calm Calm - N/A Snow Light Snow
6:35 AM -14.8 °F - -20.2 °F 77% 30.01 in 10.0 mi Calm Calm - N/A Snow Light Snow
6:55 AM -14.8 °F - -18.4 °F 84% 30.01 in 10.0 mi Calm Calm - N/A Snow Light Snow
7:15 AM -13.0 °F - -18.4 °F 77% 30.00 in 10.0 mi Calm Calm - N/A   Overcast
7:35 AM -13.0 °F - -18.4 °F 77% 30.00 in 10.0 mi Calm Calm - N/A   Overcast
7:55 AM -13.0 °F - -16.6 °F 84% 30.00 in 10.0 mi Calm Calm - N/A   Overcast
8:15 AM -11.2 °F - -16.6 °F 77% 29.99 in 10.0 mi Calm Calm - N/A   Overcast
8:35 AM -9.4 °F - -14.8 °F 77% 29.99 in 7.0 mi Calm Calm - N/A Snow Light Snow
8:55 AM -7.6 °F - -13.0 °F 77% 29.99 in 2.5 mi Calm Calm - N/A Snow Light Snow
9:15 AM -5.8 °F - -11.2 °F 77% 30.00 in 2.0 mi Calm Calm - N/A Snow Light Snow
9:35 AM -4.0 °F -14.6 °F -9.4 °F 78% 30.00 in 2.0 mi West 4.6 mph - N/A Snow Light Snow
9:55 AM -2.2 °F -10.4 °F -7.6 °F 78% 29.99 in 3.0 mi SW 3.5 mph - N/A Snow Light Snow
10:15 AM -0.4 °F -12.0 °F -7.6 °F 72% 29.99 in 10.0 mi WSW 5.8 mph - N/A   Mostly Cloudy
10:35 AM 1.4 °F -8.3 °F -5.8 °F 72% 29.99 in 10.0 mi WSW 4.6 mph - N/A   Overcast
10:55 AM 3.2 °F -4.2 °F -5.8 °F 66% 29.99 in 10.0 mi WSW 3.5 mph - N/A   Overcast
11:15 AM 3.2 °F -9.1 °F -4.0 °F 72% 29.98 in 7.0 mi WSW 6.9 mph - N/A   Overcast
11:35 AM 5.0 °F -9.1 °F -4.0 °F 66% 29.97 in 10.0 mi West 9.2 mph - N/A   Mostly Cloudy
11:55 AM 6.8 °F -7.8 °F -2.2 °F 67% 29.96 in 10.0 mi WSW 10.4 mph - N/A   Mostly Cloudy
12:15 PM 6.8 °F -5.9 °F -2.2 °F 67% 29.95 in 7.0 mi West 8.1 mph - N/A   Overcast
12:35 PM 8.6 °F -2.6 °F -2.2 °F 62% 29.94 in 7.0 mi WNW 6.9 mph - N/A   Overcast
1:15 PM 8.6 °F -4.7 °F -0.4 °F 67% 29.94 in 4.0 mi West 9.2 mph - N/A   Haze
1:35 PM 8.6 °F -4.7 °F -0.4 °F 67% 29.95 in 4.0 mi West 9.2 mph - N/A   Haze
1:55 PM 8.6 °F -3.7 °F -0.4 °F 67% 29.95 in 3.0 mi West 8.1 mph - N/A   Haze
2:15 PM 8.6 °F -5.5 °F -0.4 °F 67% 29.95 in 7.0 mi West 10.4 mph - N/A   Overcast
2:35 PM 8.6 °F -3.7 °F -0.4 °F 67% 29.97 in 5.0 mi WNW 8.1 mph - N/A   Haze
2:55 PM 8.6 °F -4.7 °F 1.4 °F 73% 29.98 in 1.5 mi WNW 9.2 mph 17.3 mph N/A Snow Light Snow
3:15 PM 8.6 °F -3.7 °F 1.4 °F 73% 29.99 in 1.5 mi WNW 8.1 mph 17.3 mph N/A Snow Light Snow
3:35 PM 6.8 °F -9.3 °F 1.4 °F 79% 30.01 in 1.0 mi WNW 12.7 mph 20.7 mph N/A Snow Light Snow
3:55 PM 6.8 °F -5.9 °F 1.4 °F 79% 30.02 in 1.5 mi NW 8.1 mph - N/A Snow Light Snow
4:15 PM 6.8 °F -3.5 °F 1.4 °F 79% 30.03 in 2.0 mi WNW 5.8 mph - N/A Snow Light Snow
4:35 PM 5.0 °F -8.1 °F 1.4 °F 85% 30.05 in 0.8 mi NNW 8.1 mph - N/A Snow Light Snow
4:55 PM 5.0 °F -11.6 °F 1.4 °F 85% 30.07 in 1.2 mi North 12.7 mph 17.3 mph N/A Snow Light Snow
5:15 PM 5.0 °F -13.6 °F 1.4 °F 85% 30.09 in 1.8 mi North 16.1 mph 20.7 mph N/A Snow Light Snow
5:35 PM 5.0 °F -12.3 °F -0.4 °F 78% 30.10 in 1.8 mi North 13.8 mph 21.9 mph N/A Snow Light Snow
5:55 PM 5.0 °F -10.8 °F -0.4 °F 78% 30.13 in 2.0 mi North 11.5 mph 17.3 mph N/A Snow Light Snow
6:15 PM 5.0 °F -10.0 °F -0.4 °F 78% 30.14 in 4.0 mi North 10.4 mph 20.7 mph N/A   Haze
6:35 PM 3.2 °F -14.6 °F -2.2 °F 78% 30.15 in 4.0 mi North 13.8 mph 25.3 mph N/A   Haze
6:55 PM 3.2 °F -13.9 °F -2.2 °F 78% 30.17 in 7.0 mi North 12.7 mph 20.7 mph N/A   Mostly Cloudy
7:15 PM 3.2 °F -13.1 °F -4.0 °F 72% 30.19 in 7.0 mi North 11.5 mph 16.1 mph N/A   Scattered Clouds
7:35 PM 3.2 °F -13.1 °F -4.0 °F 72% 30.21 in 7.0 mi North 11.5 mph 17.3 mph N/A   Mostly Cloudy
8:15 PM 1.4 °F -13.5 °F -4.0 °F 78% 30.24 in 5.0 mi North 9.2 mph - N/A   Haze
8:35 PM 1.4 °F -15.3 °F -4.0 °F 78% 30.25 in 7.0 mi North 11.5 mph - N/A   Overcast
8:55 PM 1.4 °F -15.3 °F -4.0 °F 78% 30.26 in 7.0 mi North 11.5 mph 16.1 mph N/A   Mostly Cloudy
9:15 PM 1.4 °F -13.5 °F -4.0 °F 78% 30.27 in 7.0 mi North 9.2 mph - N/A   Mostly Cloudy
9:35 PM 1.4 °F -11.3 °F -4.0 °F 78% 30.29 in 7.0 mi North 6.9 mph - N/A   Overcast
9:55 PM 1.4 °F -11.3 °F -4.0 °F 78% 30.29 in 10.0 mi North 6.9 mph - N/A   Scattered Clouds
10:15 PM 1.4 °F -11.3 °F -4.0 °F 78% 30.30 in 10.0 mi North 6.9 mph - N/A   Clear
10:35 PM -0.4 °F -12.0 °F -5.8 °F 78% 30.31 in 7.0 mi North 5.8 mph - N/A   Scattered Clouds
10:55 PM -0.4 °F -10.4 °F -5.8 °F 78% 30.33 in 10.0 mi North 4.6 mph - N/A Snow Light Snow
11:15 PM -0.4 °F -8.3 °F -5.8 °F 78% 30.34 in 10.0 mi North 3.5 mph - N/A   Mostly Cloudy
11:35 PM -0.4 °F -10.4 °F -4.0 °F 85% 30.35 in 10.0 mi North 4.6 mph - N/A   Overcast